Location: Unspecified
(0.0000°N, 0.0000°E)
Time: 23:30:21
(UTC+00:00)

A-11 Canister half - All Passes

Search period start: 17 January 2017 00:00
Search period end: 27 January 2017 00:00
Orbit: 1514 x 1686 km, 47.2° (Epoch: 16 January)

Date Brightness Start Highest point End Pass type
(mag) Time Alt. Az. Time Alt. Az. Time Alt. Az.
17 Jan - 07:29:02 10° SSW 07:38:06 45° SE 07:46:51 10° ENE daylight
17 Jan - 09:34:15 10° WSW 09:42:48 38° NW 09:51:10 10° NNE daylight
17 Jan - 18:17:04 10° N 18:23:14 18° NE 18:29:30 10° E daylight
17 Jan - 20:18:27 10° NW 20:28:15 88° SW 20:38:25 10° SE visible
17 Jan - 22:27:18 10° W 22:33:33 18° SW 22:39:55 10° S visible
18 Jan - 07:06:15 10° SSW 07:15:11 41° SE 07:23:47 10° ENE daylight
18 Jan - 09:11:07 10° WSW 09:19:53 42° NW 09:28:27 10° NNE daylight
18 Jan - 17:54:41 10° N 18:00:15 17° NE 18:05:53 10° E daylight
18 Jan - 19:55:33 10° NW 20:05:20 85° NE 20:15:28 10° SE visible
18 Jan - 22:03:50 10° W 22:10:33 20° SW 22:17:24 10° S visible
19 Jan - 06:43:29 10° SSW 06:52:16 38° SE 07:00:43 10° ENE daylight
19 Jan - 08:48:00 10° WSW 08:56:59 46° NW 09:05:43 10° NNE daylight
19 Jan - 17:32:25 10° NNE 17:37:15 15° NE 17:42:09 10° ENE daylight
19 Jan - 19:32:41 10° NW 19:42:24 79° NE 19:52:30 10° SE visible
19 Jan - 21:40:25 10° W 21:47:32 22° SW 21:54:51 10° S visible
20 Jan - 06:20:45 10° SSW 06:29:20 35° SE 06:37:35 10° ENE daylight
20 Jan - 08:24:55 10° WSW 08:34:05 50° NW 08:42:59 10° NNE daylight
20 Jan - 17:10:19 10° NNE 17:14:16 13° NE 17:18:14 10° ENE daylight
20 Jan - 19:09:49 10° NNW 19:19:29 73° NE 19:29:30 10° SE visible
20 Jan - 21:17:04 10° W 21:24:33 24° SW 21:32:15 10° S visible
21 Jan - 05:58:02 10° S 06:06:23 32° SE 06:14:26 10° ENE daylight
21 Jan - 08:01:51 10° SW 08:11:11 55° NW 08:20:13 10° NNE daylight
21 Jan - 16:48:34 10° NNE 16:51:15 11° NE 16:53:58 10° ENE daylight
21 Jan - 18:46:59 10° NNW 18:56:34 68° NE 19:06:29 10° SE visible
21 Jan - 20:53:46 10° W 21:01:34 26° SW 21:09:35 10° S visible
22 Jan - 05:35:19 10° S 05:43:26 29° SE 05:51:15 10° ENE visible
22 Jan - 07:38:48 10° SW 07:48:17 60° NW 07:57:26 10° NNE daylight
22 Jan - 18:24:10 10° NNW 18:33:39 62° NE 18:43:27 10° SE visible
22 Jan - 20:30:31 10° WNW 20:38:35 29° SW 20:46:55 10° S visible
23 Jan - 05:12:39 10° S 05:20:28 27° SE 05:28:02 10° E visible
23 Jan - 07:15:48 10° SW 07:25:22 65° NW 07:34:38 10° NNE daylight
23 Jan - 09:29:41 10° NW 09:30:40 10° NW 09:31:37 10° NW daylight
23 Jan - 18:01:23 10° NNW 18:10:44 57° NE 18:20:25 10° SE daylight
23 Jan - 20:07:19 10° WNW 20:15:37 32° SW 20:24:13 10° S visible
24 Jan - 04:50:00 10° S 04:57:30 24° SE 05:04:46 10° E visible
24 Jan - 06:52:47 10° SW 07:02:29 71° NW 07:11:48 10° NNE daylight
24 Jan - 09:04:38 10° WNW 09:07:39 12° NW 09:10:40 10° NNW daylight
24 Jan - 17:38:36 10° NNW 17:47:48 52° NE 17:57:21 10° SE daylight
24 Jan - 19:44:09 10° WNW 19:52:39 34° SW 20:01:29 10° SSE visible
25 Jan - 04:27:23 10° S 04:34:31 22° SE 04:41:27 10° E visible
25 Jan - 06:29:48 10° SW 06:39:34 77° NW 06:48:58 10° NE daylight
25 Jan - 08:40:32 10° WNW 08:44:40 13° NW 08:48:46 10° NNW daylight
25 Jan - 17:15:50 10° NNW 17:24:53 48° NE 17:34:15 10° ESE daylight
25 Jan - 19:21:00 10° WNW 19:29:42 38° SW 19:38:44 10° SSE visible
26 Jan - 04:04:49 10° S 04:11:32 20° SE 04:18:04 10° E visible
26 Jan - 06:06:49 10° SW 06:16:40 83° NW 06:26:08 10° NE daylight
26 Jan - 08:16:43 10° W 08:21:41 15° NW 08:26:37 10° NNW daylight
26 Jan - 16:53:06 10° NNW 17:01:58 44° NE 17:11:08 10° ESE daylight
26 Jan - 18:57:54 10° WNW 19:06:45 41° SW 19:15:58 10° SSE visible
